FW2734 Weather Reports


time (UTC)temp
F
wind
direction
speed
knots
gust
knots
rain 1hr
in
rain 24hr
in
rain mn
in
humidity
%
barometer
mb
20260507093056 51 57 5.2 9.6 0.00 0.00 0.00 78 1014.6
20260507092552 51 56 4.3 9.6 0.00 0.00 0.00 77 1014.7
20260507092052 51 79 5.2 8.7 0.00 0.00 0.00 78 1014.6
20260507091552 51 6 3.5 8.7 0.00 0.00 0.00 76 1014.6
20260507091053 52 8 5.2 8.7 0.00 0.00 0.00 78 1014.6
20260507090549 51 27 1.7 9.6 0.00 0.00 0.00 76 1014.5
20260507090111 52 30 5.2 9.6 0.00 0.00 0.00 78 1014.5
20260507085548 51 6 3.5 8.7 0.00 0.00 0.00 78 1014.4
20260507085052 52 332 4.3 7.8 0.00 0.00 0.00 78 1014.4
20260507084554 52 6 2.6 6.1 0.00 0.00 0.00 78 1014.3
20260507084053 50 354 3.5 7.0 0.00 0.00 0.00 79 1014.4
20260507083552 50 76 2.6 7.0 0.00 0.00 0.00 81 1014.3
20260507083053 50 53 2.6 7.0 0.00 0.00 0.00 82 1014.3
20260507082556 49 30 4.3 7.8 0.00 0.00 0.00 81 1014.4
20260507082053 49 56 3.5 7.8 0.00 0.00 0.00 82 1014.3
20260507081554 49 360 2.6 7.0 0.00 0.00 0.00 83 1014.2
20260507081052 48 6 3.5 7.0 0.00 0.00 0.00 83 1014.3
20260507080553 48 31 2.6 7.0 0.00 0.00 0.00 83 1014.2
20260507080053 48 25 1.7 7.0 0.00 0.00 0.00 84 1014.2
20260507075556 47 46 3.5 7.0 0.00 0.01 0.00 84 1014.1
20260507075052 47 6 3.5 6.1 0.00 0.01 0.00 85 1014.1
20260507074559 47 53 0.9 7.8 0.00 0.01 0.00 85 1014.1
20260507074051 47 23 0.9 7.8 0.00 0.01 0.00 86 1014.1
20260507073551 46 15 4.3 7.8 0.00 0.01 0.00 86 1014.1
20260507073051 46 340 2.6 6.1 0.00 0.01 0.00 86 1014.1
20260507072552 46 27 0.9 6.1 0.00 0.01 0.00 87 1014.0
20260507072051 46 356 3.5 7.0 0.00 0.01 0.00 87 1014.0
20260507071553 46 54 2.6 7.0 0.00 0.01 0.00 87 1013.9
20260507071052 46 2 3.5 7.8 0.00 0.01 0.00 87 1014.0
20260507070550 46 8 4.3 7.8 0.00 0.01 0.00 87 1013.8
20260507070054 46 319 2.6 7.8 0.00 0.01 0.00 87 1013.9
20260507065554 45 43 4.3 7.8 0.00 0.01 0.00 87 1013.8
20260507065052 45 11 4.3 7.8 0.00 0.01 0.00 87 1013.8
20260507064607 45 8 2.6 6.1 0.00 0.01 0.00 87 1013.8
20260507064052 45 60 3.5 6.1 0.00 0.01 0.00 87 1013.8
20260507063554 45 39 2.6 5.2 0.00 0.01 0.00 87 1013.7
20260507063057 45 306 2.6 6.1 0.00 0.01 0.00 87 1013.6
20260507062552 45 18 3.5 7.0 0.00 0.01 0.00 87 1013.6
20260507062051 45 15 3.5 7.0 0.00 0.01 0.00 87 1013.5
20260507061553 45 12 2.6 6.1 0.00 0.01 0.00 88 1013.6
20260507061051 45 34 2.6 5.2 0.00 0.01 0.00 88 1013.5
20260507060551 45 327 1.7 5.2 0.00 0.01 0.00 88 1013.5
20260507060053 45 18 2.6 6.1 0.00 0.01 0.00 89 1013.4
20260507055552 45 10 2.6 6.1 0.00 0.02 0.00 89 1013.3
20260507055053 45 9 4.3 6.1 0.00 0.02 0.00 89 1013.2
20260507054602 45 354 4.3 7.0 0.00 0.02 0.00 89 1013.2
20260507054052 45 23 4.3 7.0 0.00 0.02 0.00 89 1013.2
20260507053552 45 4 2.6 5.2 0.00 0.02 0.00 89 1013.2
20260507053052 45 345 1.7 5.2 0.00 0.02 0.00 90 1013.1
20260507052552 45 25 1.7 5.2 0.00 0.02 0.00 90 1013.0
20260507052052 44 356 2.6 5.2 0.00 0.02 0.00 90 1013.0
20260507051555 44 24 2.6 5.2 0.00 0.02 0.00 90 1012.9
20260507051052 44 4 2.6 6.1 0.00 0.02 0.00 90 1012.9
20260507050552 44 20 2.6 7.0 0.00 0.02 0.00 90 1012.9
20260507050053 44 20 3.5 7.0 0.00 0.02 0.00 91 1012.8
20260507045556 44 1 3.5 7.0 0.00 0.03 0.00 91 1012.7
20260507045051 44 343 1.7 5.2 0.00 0.03 0.00 91 1012.6
20260507044551 44 38 1.7 4.3 0.00 0.03 0.00 91 1012.5
20260507044052 44 360 0.9 4.3 0.00 0.03 0.00 91 1012.4
20260507043552 44 70 1.7 3.5 0.00 0.03 0.00 91 1012.3
20260507043052 44 18 1.7 3.5 0.00 0.03 0.00 91 1012.3
20260507042553 44 360 1.7 3.5 0.00 0.03 0.00 91 1012.3
20260507042052 44 15 0.9 3.5 0.00 0.03 0.00 91 1012.3
20260507041602 44 356 0.9 3.5 0.00 0.03 0.00 91 1012.2
20260507041054 44 1 1.7 4.3 0.00 0.03 0.00 91 1012.2
20260507040555 44 330 1.7 5.2 0.00 0.03 0.00 91 1012.1
20260507040055 44 348 0.9 5.2 0.00 0.03 0.00 91 1012.1
20260507035552 44 345 2.6 5.2 0.00 0.09 0.00 91 1012.0
20260507035052 44 340 0.9 3.5 0.00 0.09 0.00 91 1012.0
20260507034557 44 6 0.9 3.5 0.00 0.09 0.00 91 1012.0
20260507034052 44 0 0.9 3.5 0.00 0.09 0.00 91 1012.0
20260507033552 44 340 0.0 3.5 0.00 0.09 0.00 91 1011.9
20260507033052 44 298 0.9 3.5 0.00 0.09 0.00 91 1011.9
20260507032552 44 314 0.0 3.5 0.00 0.09 0.00 91 1011.8
20260507032053 44 11 0.0 3.5 0.00 0.09 0.00 91 1011.9
20260507031552 44 343 0.9 4.3 0.00 0.09 0.00 91 1011.8
20260507031054 44 360 0.9 7.0 0.00 0.09 0.00 91 1011.8
20260507030552 44 333 1.7 7.0 0.00 0.09 0.00 91 1011.7
20260507025551 44 4 1.7 5.2 0.00 0.16 0.00 91 1011.8
20260507025051 44 351 1.7 4.3 0.00 0.16 0.00 91 1011.7
20260507024604 44 348 0.9 3.5 0.00 0.16 0.00 91 1011.7
20260507024053 44 338 0.9 5.2 0.00 0.16 0.00 91 1011.7
20260507023551 44 340 0.9 5.2 0.00 0.16 0.00 91 1011.6
20260507023113 44 2 1.7 5.2 0.00 0.16 0.00 91 1011.6
20260507022551 44 339 1.7 4.3 0.00 0.16 0.00 91 1011.6
20260507022052 45 348 0.9 4.3 0.00 0.16 0.00 91 1011.6
20260507021556 44 4 0.9 4.3 0.00 0.16 0.00 91 1011.5
20260507021053 45 309 2.6 4.3 0.00 0.16 0.00 91 1011.5
20260507020552 45 323 0.9 3.5 0.00 0.16 0.00 91 1011.5
20260507020052 45 340 0.0 4.3 0.00 0.16 0.00 91 1011.5
20260507015551 45 326 0.0 4.3 0.00 0.21 0.00 91 1011.3
20260507015052 44 347 2.6 5.2 0.00 0.21 0.00 91 1011.3
20260507014606 44 350 2.6 5.2 0.00 0.21 0.00 91 1011.3
20260507014052 45 11 0.0 3.5 0.00 0.21 0.00 91 1011.3
20260507013551 45 0 0.0 4.3 0.00 0.21 0.00 91 1011.3
20260507013112 44 330 0.0 4.3 0.00 0.21 0.00 91 1011.3
20260507012551 44 342 0.9 4.3 0.00 0.21 0.00 91 1011.3
20260507012052 44 0 0.9 4.3 0.00 0.21 0.00 91 1011.3
20260507011559 44 339 0.9 3.5 0.00 0.21 0.00 91 1011.3
20260507011051 45 301 0.0 3.5 0.00 0.21 0.00 91 1011.3
20260507010552 45 310 0.9 4.3 0.00 0.21 0.00 91 1011.2
20260507010057 44 0 0.9 5.2 0.00 0.21 0.00 91 1011.2
20260507005552 44 329 0.9 5.2 0.00 0.31 0.00 91 1011.2
20260507005051 44 0 2.6 5.2 0.00 0.31 0.00 91 1011.1
20260507004559 45 335 1.7 5.2 0.00 0.31 0.00 91 1011.1
20260507004052 44 309 1.7 5.2 0.00 0.31 0.00 91 1011.1
20260507003552 44 297 0.9 3.5 0.00 0.31 0.00 91 1011.2
20260507003051 44 319 0.9 3.5 0.00 0.31 0.00 91 1011.1
20260507002552 44 0 1.7 4.3 0.00 0.31 0.00 90 1011.1
20260507002052 44 285 1.7 4.3 0.00 0.31 0.00 90 1011.1
20260507001621 44 282 1.7 4.3 0.00 0.31 0.00 90 1010.9
20260507001054 44 272 0.9 4.3 0.00 0.31 0.00 90 1011.0
20260507000551 44 288 1.7 4.3 0.00 0.31 0.00 90 1010.9
20260507000051 44 290 0.9 4.3 0.00 0.31 0.00 90 1010.9
20260506235552 44 278 1.7 4.3 0.00 0.46 0.00 89 1010.9
20260506235052 44 240 1.7 4.3 0.00 0.46 0.00 89 1010.9
20260506234552 45 293 1.7 5.2 0.00 0.46 0.00 89 1010.9
20260506234054 45 284 1.7 5.2 0.00 0.46 0.00 89 1010.9
20260506233552 45 293 1.7 4.3 0.00 0.46 0.00 89 1011.0
20260506233052 45 297 2.6 5.2 0.00 0.46 0.00 88 1010.9
20260506232551 45 285 2.6 5.2 0.00 0.46 0.00 89 1010.9
20260506232049 45 289 1.7 4.3 0.00 0.46 0.00 89 1010.9
20260506231554 45 256 0.9 3.5 0.00 0.46 0.00 89 1010.8
20260506231053 45 275 1.7 3.5 0.00 0.46 0.00 88 1010.8
20260506230552 45 266 0.9 3.5 0.00 0.46 0.00 88 1010.9
20260506230055 45 256 0.9 4.3 0.00 0.46 0.00 88 1010.9
20260506225555 45 248 0.9 4.3 0.00 0.66 0.00 88 1010.9
20260506225052 44 290 1.7 4.3 0.00 0.66 0.00 88 1010.8
20260506224553 44 290 0.9 4.3 0.00 0.66 0.00 89 1010.8
20260506224052 44 267 1.7 4.3 0.00 0.66 0.00 88 1010.8
20260506223551 44 290 0.9 4.3 0.00 0.66 0.00 89 1010.7
20260506223104 44 313 1.7 4.3 0.00 0.66 0.00 89 1010.7
20260506222552 44 307 0.9 4.3 0.00 0.66 0.00 89 1010.7
20260506222054 44 304 0.9 4.3 0.00 0.66 0.00 89 1010.7
20260506221559 44 0 0.9 4.3 0.00 0.66 0.00 89 1010.7
20260506221053 44 343 0.9 3.5 0.00 0.66 0.00 89 1010.7
20260506220548 44 302 0.9 3.5 0.00 0.66 0.00 89 1010.7
20260506220054 45 21 0.0 2.6 0.00 0.66 0.00 89 1010.6
20260506215552 45 322 0.9 2.6 0.00 0.71 0.66 89 1010.6
20260506215051 44 0 0.9 2.6 0.00 0.71 0.66 89 1010.5
20260506214558 44 329 0.0 3.5 0.00 0.71 0.66 89 1010.3
20260506214050 44 5 0.9 3.5 0.00 0.71 0.66 89 1010.2
20260506213550 44 6 1.7 3.5 0.00 0.71 0.66 88 1010.3
20260506213053 44 304 0.9 3.5 0.00 0.71 0.66 88 1010.2
20260506212552 44 0 0.9 4.3 0.00 0.71 0.66 88 1010.2
20260506212056 45 323 0.9 4.3 0.00 0.71 0.66 88 1010.1
20260506211551 44 8 2.6 4.3 0.00 0.71 0.66 88 1009.9
20260506211052 45 8 1.7 5.2 0.00 0.71 0.66 88 1010.0
20260506210552 45 4 1.7 5.2 0.00 0.71 0.66 88 1010.0
20260506210052 45 11 1.7 5.2 0.00 0.71 0.66 87 1010.0
20260506205551 45 42 2.6 4.3 0.00 0.77 0.66 88 1010.0
20260506205051 45 356 1.7 3.5 0.00 0.77 0.66 88 1009.9
20260506204552 45 0 0.0 3.5 0.00 0.77 0.66 87 1009.9
20260506204052 45 27 0.0 3.5 0.00 0.77 0.66 87 1009.9
20260506203551 46 3 1.7 3.5 0.00 0.77 0.66 87 1009.9
20260506203055 46 0 0.9 5.2 0.00 0.77 0.66 87 1009.9
20260506202551 46 11 0.9 5.2 0.00 0.77 0.66 87 1009.9
20260506202048 46 5 0.9 5.2 0.00 0.77 0.66 87 1009.8
20260506201552 46 1 0.0 3.5 0.00 0.77 0.66 87 1009.8
20260506201053 46 9 0.9 4.3 0.00 0.77 0.66 87 1009.7
20260506200552 46 1 1.7 5.2 0.00 0.77 0.66 87 1009.6
20260506200136 46 360 1.7 7.0 0.00 0.77 0.66 87 1009.5
20260506195552 46 347 1.7 7.8 0.00 0.86 0.66 87 1009.4
20260506195052 46 356 4.3 7.8 0.00 0.86 0.66 87 1009.3
20260506194603 46 19 2.6 5.2 0.00 0.86 0.66 88 1009.3
20260506194051 46 19 1.7 4.3 0.00 0.86 0.66 88 1009.2
20260506193551 47 0 2.6 6.1 0.00 0.86 0.66 87 1009.1
20260506193054 47 18 0.9 7.0 0.00 0.86 0.66 87 1009.1
20260506192553 47 349 2.6 7.0 0.00 0.86 0.66 87 1009.1
20260506192054 47 333 0.9 6.1 0.00 0.86 0.66 87 1009.0
20260506191552 47 311 2.6 6.1 0.00 0.86 0.66 87 1008.9
20260506191052 47 335 0.9 6.1 0.00 0.86 0.66 87 1008.8
20260506190553 47 338 1.7 7.8 0.00 0.86 0.66 87 1008.7
20260506190052 47 342 2.6 8.7 0.00 0.86 0.66 87 1008.6
20260506185553 47 328 1.7 8.7 0.00 0.91 0.66 87 1008.5
20260506185052 47 347 2.6 8.7 0.00 0.91 0.66 87 1008.5
20260506184556 47 0 2.6 8.7 0.00 0.91 0.66 86 1008.5
20260506184053 47 12 2.6 9.6 0.00 0.91 0.66 87 1008.5
20260506183552 47 355 3.5 9.6 0.00 0.91 0.66 86 1008.5
20260506183054 47 29 4.3 9.6 0.00 0.91 0.66 86 1008.5
20260506182551 47 333 2.6 6.1 0.00 0.91 0.66 86 1008.5
20260506182053 47 25 2.6 8.7 0.00 0.91 0.66 86 1008.5
20260506181556 47 0 3.5 8.7 0.00 0.91 0.66 86 1008.5
20260506181053 47 3 2.6 6.1 0.00 0.91 0.66 86 1008.3
20260506180552 48 5 1.7 6.1 0.00 0.91 0.66 86 1008.4
20260506180058 48 338 1.7 6.1 0.00 0.91 0.66 86 1008.4
20260506175553 48 319 2.6 6.1 0.00 0.93 0.66 86 1008.3
20260506175051 48 305 0.9 6.1 0.00 0.93 0.66 86 1008.3
20260506174553 48 10 2.6 6.1 0.00 0.93 0.66 86 1008.3
20260506174051 48 355 3.5 6.1 0.00 0.93 0.66 86 1008.3
20260506173551 48 322 2.6 6.1 0.00 0.93 0.66 86 1008.2
20260506173116 48 36 1.7 5.2 0.00 0.93 0.66 86 1008.2
20260506172555 48 16 1.7 7.8 0.00 0.93 0.66 85 1008.0
20260506172048 48 342 3.5 7.8 0.00 0.93 0.66 85 1008.0
20260506171603 48 5 2.6 7.0 0.00 0.93 0.66 85 1007.9
20260506171051 48 356 3.5 10.4 0.00 0.93 0.66 85 1007.8
20260506170549 48 34 4.3 10.4 0.00 0.93 0.66 85 1007.8
20260506170059 48 2 4.3 10.4 0.00 0.93 0.66 85 1007.8
20260506165551 48 6 5.2 9.6 0.00 0.97 0.66 86 1007.9
20260506165051 49 1 5.2 9.6 0.00 0.97 0.66 86 1007.8
20260506164552 49 291 4.3 9.6 0.00 0.97 0.66 86 1007.9
20260506164051 49 329 5.2 9.6 0.00 0.97 0.66 86 1007.9
20260506163551 49 8 3.5 9.6 0.00 0.97 0.66 86 1007.8
20260506163107 49 345 4.3 11.3 0.00 0.97 0.66 86 1007.8
20260506162555 49 354 3.5 11.3 0.00 0.97 0.66 86 1007.8
20260506162053 49 5 4.3 11.3 0.00 0.97 0.66 86 1007.8
20260506161556 49 1 4.3 10.4 0.00 0.97 0.66 85 1007.8
20260506161048 49 28 4.3 7.8 0.00 0.97 0.66 85 1007.8
20260506160553 50 58 4.3 11.3 0.00 0.97 0.66 85 1007.8
20260506160107 50 25 3.5 11.3 0.00 0.97 0.66 85 1007.8
20260506155548 50 39 7.0 11.3 0.00 1.00 0.66 84 1007.8
20260506155048 50 356 6.1 11.3 0.00 1.00 0.66 84 1007.8
20260506154553 50 11 5.2 11.3 0.00 1.00 0.66 85 1007.7
20260506154052 50 360 6.1 11.3 0.00 1.00 0.66 85 1007.7
20260506153552 50 30 4.3 10.4 0.00 1.00 0.66 86 1007.7
20260506153057 50 333 5.2 12.2 0.00 1.00 0.66 85 1007.6
20260506152552 50 351 5.2 12.2 0.00 1.00 0.66 84 1007.6
20260506152048 50 25 7.0 11.3 0.00 1.00 0.66 85 1007.6
20260506151554 50 4 5.2 12.2 0.00 1.00 0.66 85 1007.5
20260506151051 50 4 6.1 12.2 0.00 1.00 0.66 84 1007.5
20260506150549 50 333 4.3 8.7 0.00 1.00 0.66 84 1007.5
20260506150104 51 16 4.3 11.3 0.00 1.00 0.66 84 1007.5
20260506145555 51 73 4.3 11.3 0.00 1.06 0.66 83 1007.5
20260506145048 51 5 5.2 13.0 0.00 1.06 0.66 83 1007.4
20260506144553 51 356 5.2 13.0 0.00 1.06 0.66 84 1007.4
20260506144048 51 360 7.0 13.0 0.00 1.06 0.66 85 1007.4
20260506143550 50 329 5.2 9.6 0.00 1.06 0.66 86 1007.4
20260506143055 50 356 3.5 9.6 0.00 1.06 0.66 86 1007.6
20260506142548 50 338 3.5 10.4 0.00 1.06 0.66 85 1007.5
20260506142050 50 290 3.5 10.4 0.00 1.06 0.66 85 1007.5
20260506141549 51 344 4.3 10.4 0.00 1.06 0.66 85 1007.5
20260506141052 51 326 3.5 8.7 0.00 1.06 0.66 86 1007.4
20260506140555 50 343 2.6 10.4 0.00 1.06 0.66 87 1007.4
20260506140053 50 27 3.5 10.4 0.00 1.06 0.66 87 1007.5
20260506135551 49 332 6.1 10.4 0.00 1.13 0.66 86 1007.4
20260506135051 50 11 2.6 9.6 0.00 1.13 0.66 86 1007.3
20260506134615 50 4 4.3 9.6 0.00 1.13 0.66 86 1007.4
20260506134055 50 348 6.1 9.6 0.00 1.13 0.66 85 1007.3
20260506133552 51 338 2.6 10.4 0.00 1.13 0.66 85 1007.4
20260506133051 51 331 5.2 10.4 0.00 1.13 0.66 85 1007.3
20260506132551 51 34 5.2 10.4 0.00 1.13 0.66 85 1007.3
20260506132051 50 352 4.3 9.6 0.00 1.13 0.66 87 1007.3
20260506131607 50 341 5.2 9.6 0.00 1.13 0.66 86 1007.3
20260506131048 50 17 4.3 9.6 0.00 1.13 0.66 86 1007.3
20260506130551 50 6 4.3 10.4 0.00 1.13 0.66 87 1007.2
20260506130052 50 352 3.5 10.4 0.00 1.13 0.66 87 1007.2
20260506125548 50 338 4.3 10.4 0.00 1.13 0.66 87 1007.2
20260506125048 50 281 2.6 7.8 0.00 1.13 0.66 87 1007.1
20260506124554 50 82 3.5 8.7 0.00 1.13 0.66 87 1007.1
20260506124048 50 319 1.7 8.7 0.00 1.13 0.66 88 1007.0
20260506123548 49 306 3.5 8.7 0.00 1.13 0.66 87 1007.0
20260506123051 49 342 4.3 8.7 0.00 1.13 0.66 87 1006.9
20260506122548 49 0 4.3 8.7 0.00 1.13 0.66 87 1006.8
20260506122050 49 319 3.5 7.8 0.00 1.13 0.66 87 1006.9
20260506121554 49 2 2.6 8.7 0.00 1.13 0.66 87 1006.8
20260506121050 49 287 1.7 8.7 0.00 1.13 0.66 87 1006.8
20260506120550 49 8 1.7 7.8 0.00 1.13 0.66 87 1006.8
20260506120055 50 340 3.5 7.8 0.00 1.13 0.66 87 1006.7
20260506115552 50 305 1.7 7.8 0.00 1.13 0.66 87 1006.7
20260506115048 50 342 3.5 8.7 0.00 1.13 0.66 87 1006.6
20260506114553 50 8 4.3 8.7 0.00 1.13 0.66 88 1006.6
20260506114052 50 16 3.5 10.4 0.00 1.13 0.66 87 1006.5
20260506113551 50 13 4.3 10.4 0.00 1.13 0.66 87 1006.5
20260506113053 50 356 3.5 10.4 0.00 1.13 0.66 87 1006.4
20260506112551 50 9 6.1 9.6 0.00 1.13 0.66 87 1006.5
20260506112050 50 23 4.3 9.6 0.00 1.13 0.66 87 1006.5
20260506111610 50 360 3.5 9.6 0.00 1.13 0.66 87 1006.5
20260506111050 50 360 4.3 9.6 0.00 1.13 0.66 87 1006.4
20260506110553 50 338 5.2 9.6 0.00 1.13 0.66 87 1006.2
20260506110053 50 345 5.2 8.7 0.00 1.13 0.66 87 1006.2
20260506105552 50 18 4.3 8.7 0.00 1.13 0.66 87 1006.4
20260506105051 50 340 3.5 7.0 0.00 1.13 0.66 88 1006.3
20260506104551 50 5 2.6 7.8 0.00 1.13 0.66 88 1006.1
20260506104055 50 63 4.3 7.8 0.00 1.13 0.66 88 1006.2
20260506103551 50 18 4.3 7.8 0.00 1.13 0.66 89 1006.1
20260506103051 50 32 3.5 8.7 0.00 1.13 0.66 89 1006.2
20260506102551 50 34 3.5 8.7 0.00 1.13 0.66 89 1006.2
20260506102053 49 8 3.5 7.0 0.00 1.13 0.66 89 1006.2
20260506101553 49 6 2.6 9.6 0.00 1.13 0.66 89 1006.2
20260506101051 49 23 2.6 9.6 0.00 1.13 0.66 89 1006.2
20260506100548 49 5 3.5 9.6 0.00 1.13 0.66 89 1006.1
20260506100051 49 310 4.3 7.8 0.00 1.13 0.66 89 1006.0
20260506095551 49 50 3.5 7.0 0.00 1.13 0.66 89 1005.9
20260506095050 49 353 2.6 8.7 0.00 1.13 0.66 90 1006.0
20260506094553 49 23 2.6 8.7 0.00 1.13 0.66 89 1005.9
20260506094050 49 317 3.5 8.7 0.00 1.13 0.66 89 1005.8
20260506093554 50 345 2.6 7.8 0.00 1.13 0.66 89 1005.9